Location: Donald C. Martin Observatory
(38.3885°N, 82.3916°W)
Time: 22:29:57
(UTC-04:00)

Cosmos 1484 Rocket - Visible Passes

Search period start: 27 March 2017 00:00
Search period end: 06 April 2017 00:00
Orbit: 507 x 563 km, 97.3° (Epoch: 26 March)

Date Brightness Start Highest point End Pass type
(mag) Time Alt. Az. Time Alt. Az. Time Alt. Az.
27 Mar 5.9 20:21:59 10° SW 20:24:22 16° W 20:26:43 10° NW visible
28 Mar 5.7 20:12:38 10° SW 20:15:28 20° W 20:18:18 10° NW visible
05 Apr 6.6 20:39:10 10° W 20:39:23 10° W 20:39:36 10° W visible
